SIRIUS-2

Last updated on Oct. 25, 2016, 5:18 p.m. UTC

1 26483U 00051A   16299.23709255  .00000071  00000-0  00000+0 0  9996
2 26483  64.6149 110.6663 0133479 259.5134 285.5130  1.64982308 59711
UTC
Height (km)
Latitude
Longitude
Inclination
Orbital Period
UTC large
Height (km)
Speed (km/s)
/
Latitude / Longitude
Inclination (degrees)
Orbital Period (minutes)
Azimuth
Elevation
Range (km)
Doppler Factor
iOS Compass Heading
iOS Angle

Next 30 passes for location: Hong Kong

Rise time Rise Azimuth (degrees) Set time Set Azimuth (degrees) Duration Max altitude (degrees)

No matching passes for this satellites